• In Deutschland
  • Länderverzeichnis
  • Für 7 Tage
  • Wassertemperatur
  • Satellitenkarten
  • Wetterkarte
  • Widgets
  • user-avatar
    Anmelden

    Stündliche Wetter Innsbruck

    Heute, 25 April, Dienstag

    Zeit Temperatur Niederschläge Wind Luftdruck Luftfeuchtigkeit
    00:00 -2°C° 0 mm 2 m/S 591 mmHg 96%
    01:00 -2°C° 0 mm 3 m/S 591 mmHg 95%
    02:00 -2°C° 0 mm 2 m/S 590 mmHg 95%
    03:00 -3°C° 0 mm 2 m/S 590 mmHg 95%
    04:00 -3°C° 0 mm 2 m/S 590 mmHg 95%
    05:00 -2°C° 0 mm 2 m/S 590 mmHg 94%
    06:00 -2°C° 0 mm 2 m/S 590 mmHg 93%
    07:00 +1°C° 0 mm 2 m/S 590 mmHg 91%
    08:00 +2°C° 0,1 mm 2 m/S 591 mmHg 89%
    09:00 +3°C° 0,1 mm 2 m/S 591 mmHg 87%
    10:00 +5°C° 0,1 mm 2 m/S 592 mmHg 85%
    11:00 +5°C° 0,6 mm 2 m/S 592 mmHg 84%
    12:00 +5°C° 0,6 mm 2 m/S 591 mmHg 84%
    13:00 +6°C° 0,6 mm 2 m/S 591 mmHg 84%
    14:00 +5°C° 1 mm 2 m/S 591 mmHg 86%
    15:00 +5°C° 1 mm 2 m/S 590 mmHg 87%
    16:00 +4°C° 1 mm 2 m/S 590 mmHg 89%
    17:00 +3°C° 1,1 mm 2 m/S 589 mmHg 91%
    18:00 +2°C° 1,1 mm 2 m/S 589 mmHg 94%
    19:00 +1°C° 1,1 mm 2 m/S 589 mmHg 96%
    20:00 +1°C° 1,3 mm 2 m/S 589 mmHg 96%
    21:00 +1°C° 1,3 mm 2 m/S 588 mmHg 97%
    22:00 -1°C° 1,3 mm 2 m/S 588 mmHg 98%
    23:00 -1°C° 0,6 mm 2 m/S 588 mmHg 97%

    Morgen, 26 April, Mittwoch

    Zeit Temperatur Niederschläge Wind Luftdruck Luftfeuchtigkeit
    00:00 -1°C° 0,6 mm 2 m/S 588 mmHg 97%
    01:00 -1°C° 0,6 mm 2 m/S 588 mmHg 97%
    02:00 -2°C° 0,5 mm 2 m/S 587 mmHg 97%
    03:00 -2°C° 0,5 mm 2 m/S 587 mmHg 97%
    04:00 -2°C° 0,5 mm 2 m/S 587 mmHg 97%
    05:00 -2°C° 0,7 mm 2 m/S 587 mmHg 97%
    06:00 -2°C° 0,7 mm 2 m/S 587 mmHg 97%
    07:00 -2°C° 0,7 mm 2 m/S 587 mmHg 96%
    08:00 -2°C° 1,1 mm 2 m/S 588 mmHg 96%
    09:00 -1°C° 1,1 mm 2 m/S 588 mmHg 95%
    10:00 -1°C° 1,1 mm 2 m/S 588 mmHg 95%
    11:00 -1°C° 1,4 mm 2 m/S 588 mmHg 95%
    12:00 -1°C° 1,4 mm 2 m/S 588 mmHg 95%
    13:00 -1°C° 1,4 mm 2 m/S 588 mmHg 95%
    14:00 +1°C° 1,8 mm 1 m/S 588 mmHg 95%
    15:00 +1°C° 1,8 mm 1 m/S 588 mmHg 96%
    16:00 +1°C° 1,8 mm 1 m/S 588 mmHg 97%
    17:00 0°C° 2 mm 1 m/S 588 mmHg 97%
    18:00 -1°C° 2 mm 1 m/S 588 mmHg 98%
    19:00 -1°C° 2 mm 1 m/S 587 mmHg 98%
    20:00 -2°C° 2,1 mm 1 m/S 587 mmHg 98%
    21:00 -2°C° 2,1 mm 1 m/S 587 mmHg 98%
    22:00 -3°C° 2,1 mm 1 m/S 587 mmHg 98%
    23:00 -3°C° 2,1 mm 1 m/S 587 mmHg 98%

    übermorgen, 27 April, Donnerstag

    Zeit Temperatur Niederschläge Wind Luftdruck Luftfeuchtigkeit
    00:00 -3°C° 2,1 mm 1 m/S 587 mmHg 98%
    01:00 -4°C° 2,1 mm 1 m/S 587 mmHg 98%
    02:00 -4°C° 0,5 mm 1 m/S 587 mmHg 98%
    03:00 -4°C° 0,5 mm 1 m/S 587 mmHg 97%
    04:00 -4°C° 0,5 mm 1 m/S 587 mmHg 97%
    05:00 -4°C° 0,3 mm 1 m/S 587 mmHg 97%
    06:00 -3°C° 0,3 mm 1 m/S 588 mmHg 97%
    07:00 -3°C° 0,3 mm 0 m/S 588 mmHg 97%
    08:00 -2°C° 0,4 mm 1 m/S 588 mmHg 97%
    09:00 -1°C° 0,4 mm 1 m/S 589 mmHg 97%
    10:00 0°C° 0,4 mm 1 m/S 589 mmHg 96%
    11:00 0°C° 1,1 mm 1 m/S 589 mmHg 96%
    12:00 0°C° 1,1 mm 1 m/S 589 mmHg 96%
    13:00 0°C° 1,1 mm 1 m/S 589 mmHg 96%
    14:00 -2°C° 1,6 mm 2 m/S 589 mmHg 96%
    15:00 -2°C° 1,6 mm 2 m/S 589 mmHg 97%
    16:00 -3°C° 1,6 mm 2 m/S 588 mmHg 97%
    17:00 -3°C° 1,6 mm 2 m/S 588 mmHg 97%
    18:00 -4°C° 1,6 mm 2 m/S 588 mmHg 98%
    19:00 -2°C° 1,6 mm 1 m/S 588 mmHg 98%
    20:00 -2°C° 1,6 mm 1 m/S 588 mmHg 98%
    21:00 -3°C° 1,6 mm 1 m/S 588 mmHg 98%
    22:00 -3°C° 1,6 mm 1 m/S 588 mmHg 98%
    23:00 -3°C° 1,2 mm 1 m/S 588 mmHg 98%

    28 April, Freitag

    Zeit Temperatur Niederschläge Wind Luftdruck Luftfeuchtigkeit
    00:00 -3°C° 1,2 mm 1 m/S 587 mmHg 98%
    01:00 -4°C° 1,2 mm 1 m/S 587 mmHg 98%
    02:00 -4°C° 1 mm 1 m/S 587 mmHg 98%
    03:00 -4°C° 1 mm 1 m/S 586 mmHg 98%
    04:00 -4°C° 1 mm 1 m/S 586 mmHg 98%
    05:00 -6°C° 1,3 mm 2 m/S 586 mmHg 98%
    06:00 -6°C° 1,3 mm 2 m/S 586 mmHg 97%
    07:00 -6°C° 1,3 mm 2 m/S 586 mmHg 97%
    08:00 -6°C° 1,4 mm 2 m/S 587 mmHg 97%
    09:00 -6°C° 1,4 mm 2 m/S 587 mmHg 97%
    10:00 -6°C° 1,4 mm 2 m/S 587 mmHg 96%
    11:00 -5°C° 1,1 mm 2 m/S 587 mmHg 96%
    12:00 -5°C° 1,1 mm 2 m/S 588 mmHg 96%
    13:00 -5°C° 1,1 mm 2 m/S 588 mmHg 96%
    14:00 -5°C° 0,6 mm 2 m/S 588 mmHg 96%
    15:00 -5°C° 0,6 mm 2 m/S 588 mmHg 96%
    16:00 -5°C° 0,6 mm 2 m/S 589 mmHg 95%
    17:00 -6°C° 0,2 mm 2 m/S 589 mmHg 96%
    18:00 -6°C° 0,2 mm 2 m/S 589 mmHg 96%
    19:00 -7°C° 0,2 mm 2 m/S 589 mmHg 96%
    20:00 -8°C° 0,1 mm 2 m/S 589 mmHg 96%
    21:00 -9°C° 0,1 mm 2 m/S 589 mmHg 96%
    22:00 -10°C° 0,1 mm 2 m/S 589 mmHg 96%
    23:00 -10°C° 0 mm 1 m/S 589 mmHg 96%

    29 April, Samstag

    Zeit Temperatur Niederschläge Wind Luftdruck Luftfeuchtigkeit
    00:00 -11°C° 0 mm 1 m/S 588 mmHg 96%
    01:00 -11°C° 0 mm 1 m/S 588 mmHg 95%
    02:00 -13°C° 0 mm 1 m/S 588 mmHg 95%
    03:00 -14°C° 0 mm 1 m/S 587 mmHg 95%
    04:00 -15°C° 0 mm 1 m/S 586 mmHg 95%
    05:00 -13°C° 0 mm 1 m/S 588 mmHg 95%
    06:00 -10°C° 0 mm 1 m/S 589 mmHg 94%
    07:00 -7°C° 0 mm 1 m/S 591 mmHg 93%
    08:00 -6°C° 0 mm 1 m/S 591 mmHg 93%
    09:00 -4°C° 0 mm 0 m/S 592 mmHg 93%
    10:00 -2°C° 0 mm 0 m/S 593 mmHg 93%
    11:00 -1°C° 0 mm 0 m/S 592 mmHg 93%
    12:00 0°C° 0 mm 1 m/S 592 mmHg 93%
    13:00 +1°C° 0 mm 1 m/S 592 mmHg 93%
    14:00 +1°C° 0 mm 1 m/S 592 mmHg 93%
    15:00 +1°C° 0 mm 1 m/S 592 mmHg 93%
    16:00 +1°C° 0 mm 1 m/S 592 mmHg 93%
    17:00 0°C° 0 mm 1 m/S 591 mmHg 94%
    18:00 -1°C° 0 mm 1 m/S 591 mmHg 95%
    19:00 -2°C° 0 mm 1 m/S 591 mmHg 96%
    20:00 -3°C° 0 mm 1 m/S 591 mmHg 96%
    21:00 -6°C° 0 mm 2 m/S 590 mmHg 96%
    22:00 -7°C° 0 mm 2 m/S 590 mmHg 96%
    23:00 -7°C° 0 mm 2 m/S 590 mmHg 96%

    30 April, Sonntag

    Zeit Temperatur Niederschläge Wind Luftdruck Luftfeuchtigkeit
    00:00 -7°C° 0 mm 2 m/S 590 mmHg 96%
    01:00 -7°C° 0 mm 2 m/S 590 mmHg 96%
    02:00 -7°C° 0 mm 2 m/S 590 mmHg 96%
    03:00 -7°C° 0 mm 2 m/S 590 mmHg 96%
    04:00 -7°C° 0 mm 2 m/S 590 mmHg 96%
    05:00 -6°C° 0 mm 2 m/S 590 mmHg 95%
    06:00 -5°C° 0 mm 2 m/S 591 mmHg 95%
    07:00 -4°C° 0 mm 2 m/S 591 mmHg 94%
    08:00 -3°C° 0 mm 2 m/S 591 mmHg 93%
    09:00 -1°C° 0 mm 2 m/S 591 mmHg 93%
    10:00 +1°C° 0 mm 2 m/S 591 mmHg 92%
    11:00 +1°C° 0 mm 2 m/S 591 mmHg 92%
    12:00 +2°C° 0 mm 2 m/S 591 mmHg 91%
    13:00 +2°C° 0 mm 2 m/S 591 mmHg 90%
    14:00 +2°C° 0 mm 2 m/S 591 mmHg 90%
    15:00 +3°C° 0 mm 2 m/S 591 mmHg 90%
    16:00 +3°C° 0 mm 2 m/S 590 mmHg 90%
    17:00 +2°C° 0 mm 2 m/S 590 mmHg 92%
    18:00 +1°C° 0 mm 2 m/S 590 mmHg 93%
    19:00 -1°C° 0 mm 2 m/S 589 mmHg 95%
    20:00 -2°C° 0 mm 2 m/S 589 mmHg 95%
    21:00 -2°C° 0 mm 2 m/S 589 mmHg 96%
    22:00 -3°C° 0 mm 2 m/S 589 mmHg 96%
    23:00 -3°C° 0 mm 2 m/S 589 mmHg 96%
    Mehr zeigen